CZ-6A DEB, 68406

Orbit data source: Space-Track

CZ-6A DEB, 68406 is space debris in SSO originally from a launch on Fri, 11 Nov 2022 UTC launched from the Taiyaun Space Center, China (TSC). Debris objects in space refer to the collection of defunct objects orbiting the Earth. Examples of debris include non-operational satellites, rocket bodies, and fragments generated from explosions, collisions, or faulty payload assembly.

Loading next visibility...
Identifier
68406, 2022-151AJH
Orbit
SSO
Country
Flag of CNCN / PRC
Related business
Manufacturer
SAST
Mission
Spacecraft
Bus & Motor
Unknown
Mass
Unknown
Launch date (UTC)
2022-11-11 (4 years ago)
Launch vehicle
Unknown
Launch site
Taiyaun Space Center, China (TSC)
Object type
Payload
Rocket body
Debris
Shape & HBR
Unknown shape, 1.1 m
Radar Cross Section
Medium (>0.1 m² and <1 m²)

Expand to show TLE details & history
Last TLE update: 16 hours ago

TLE from 16 hours ago
0 CZ-6A DEB
1 68406U 22151AJH 26236.33101750  .00007603  00000-0  14125-2 0  9995
2 68406  99.1324  17.1569 0074472 143.1475 217.4875 14.63709023179468
Epoch: 2026-08-24T07:56Z
TLE epoch observation values (Epoch: 2026-08-24T07:56:39.911Z)
Latitude
-0.0001°
Longitude
-74.62364°
Altitude
726.051 km
Speed
7.47 km/s
True Right ascension
01h 08m 37s
True Declination
0° 00' 00"
Sunlit
Object was in full shadow at epoch
Visualization orbit readout
Latitude
Unknown
Longitude
Unknown
Altitude
Unknown
Speed
Unknown
Apparent Right ascension
Unknown
Apparent Declination
Unknown
Sunlit
N/A
Visualization observer readout
Local Sidereal Time
14:51:24
Azimuth
Unknown
Elevation
Unknown
Doppler factor
Unknown
Orbital elements
Apogee altitude
730.896 km
Perigee altitude
625.793 km
Semi-major axis
7,056.482 km
Eccentricity
0.00745
Inclination
99.1324°
RAAN
17.1569°
Arg. of periapsis
143.1475°
True anomaly
216.97196°
Mean anomaly
217.4875°
Eccentric anomaly
217.22935°
Mean motion
3.66152 °/min
Orbital period
98.32 mins
BSTAR
0.0014125
Loading maneuver chart data...
Computing Atmospheric mass density...
Loading historical data...
Loading historical data...
Loading historical data...
Loading historical data...
Loading historical data...
Loading historical data...
Loading historical data...

Documentation

Showing up to 5 results
|